| time (UTC) | temp F | wind direction | speed knots | gust knots | rain 1hr in | rain 24hr in | rain mn in | humidity % | barometer mb |
| 20260507010016 | 62 | 336 | 1.7 | 8.7 | 0.00 | 0.00 | 0.00 | 81 | 1013.5 |
| 20260507004503 | 63 | 296 | 1.7 | 7.0 | 0.00 | 0.00 | 0.00 | 80 | 1013.3 |
| 20260507003006 | 63 | 63 | 1.7 | 7.8 | 0.00 | 0.00 | 0.00 | 80 | 1013.0 |
| 20260507001513 | 63 | 249 | 2.6 | 8.7 | 0.00 | 0.00 | 0.00 | 80 | 1013.1 |
| 20260507000015 | 63 | 332 | 2.6 | 8.7 | 0.00 | 0.00 | 0.00 | 79 | 1012.9 |
| 20260506234518 | 63 | 232 | 2.6 | 7.8 | 0.00 | 0.00 | 0.00 | 79 | 1012.9 |
| 20260506233004 | 62 | 21 | 2.6 | 8.7 | 0.00 | 0.00 | 0.00 | 79 | 1012.8 |
| 20260506231509 | 63 | 298 | 1.7 | 8.7 | 0.00 | 0.00 | 0.00 | 78 | 1012.6 |
| 20260506230009 | 63 | 276 | 2.6 | 9.6 | 0.00 | 0.00 | 0.00 | 78 | 1012.9 |
| 20260506224517 | 64 | 295 | 2.6 | 10.4 | 0.00 | 0.00 | 0.00 | 76 | 1012.7 |
| 20260506223020 | 64 | 333 | 4.3 | 11.3 | 0.00 | 0.00 | 0.00 | 77 | 1012.5 |
| 20260506221505 | 65 | 284 | 3.5 | 9.6 | 0.00 | 0.00 | 0.00 | 75 | 1012.2 |
| 20260506220007 | 67 | 343 | 1.7 | 9.6 | 0.00 | 0.00 | 0.00 | 73 | 1012.5 |
| 20260506214514 | 67 | 319 | 3.5 | 12.2 | 0.00 | 0.00 | 0.00 | 74 | 1012.5 |
| 20260506213019 | 68 | 194 | 3.5 | 10.4 | 0.00 | 0.00 | 0.00 | 73 | 1012.4 |
| 20260506211504 | 70 | 247 | 2.6 | 11.3 | 0.00 | 0.00 | 0.00 | 71 | 1012.2 |
| 20260506210010 | 71 | 331 | 4.3 | 11.3 | 0.00 | 0.00 | 0.00 | 71 | 1012.2 |
| 20260506204512 | 71 | 319 | 5.2 | 12.2 | 0.00 | 0.00 | 0.00 | 72 | 1012.0 |
| 20260506203018 | 71 | 302 | 3.5 | 11.3 | 0.00 | 0.00 | 0.00 | 74 | 1012.6 |
| 20260506201538 | 72 | 259 | 2.6 | 10.4 | 0.00 | 0.00 | 0.00 | 71 | 1012.8 |
| 20260506200009 | 74 | 196 | 3.5 | 10.4 | 0.00 | 0.00 | 0.00 | 74 | 1012.3 |
| 20260506194508 | 74 | 115 | 3.5 | 8.7 | 0.00 | 0.00 | 0.00 | 73 | 1011.9 |
| 20260506193016 | 76 | 296 | 4.3 | 13.0 | 0.00 | 0.00 | 0.00 | 72 | 1011.7 |
| 20260506191520 | 79 | 298 | 2.6 | 8.7 | 0.00 | 0.00 | 0.00 | 73 | 1011.8 |
| 20260506190026 | 77 | 319 | 0.9 | 6.1 | 0.00 | 0.00 | 0.00 | 74 | 1012.0 |
| 20260506184507 | 77 | 300 | 2.6 | 7.0 | 0.00 | 0.00 | 0.00 | 76 | 1011.9 |
| 20260506183014 | 76 | 351 | 1.7 | 7.0 | 0.00 | 0.00 | 0.00 | 76 | 1011.8 |
| 20260506181518 | 75 | 345 | 2.6 | 7.0 | 0.00 | 0.00 | 0.00 | 75 | 1012.2 |
| 20260506180024 | 74 | 34 | 1.7 | 7.0 | 0.00 | 0.00 | 0.00 | 79 | 1012.0 |
| 20260506174525 | 73 | 21 | 3.5 | 7.8 | 0.00 | 0.00 | 0.00 | 80 | 1012.2 |
| 20260506173013 | 71 | 348 | 3.5 | 7.0 | 0.00 | 0.00 | 0.00 | 81 | 1012.1 |
| 20260506171517 | 69 | 319 | 2.6 | 7.0 | 0.00 | 0.00 | 0.00 | 80 | 1012.4 |
| 20260506170021 | 69 | 352 | 4.3 | 9.6 | 0.00 | 0.00 | 0.00 | 85 | 1012.4 |
| 20260506164525 | 67 | 308 | 3.5 | 9.6 | 0.00 | 0.00 | 0.00 | 88 | 1012.6 |
| 20260506163019 | 66 | 330 | 3.5 | 8.7 | 0.00 | 0.00 | 0.00 | 88 | 1013.1 |
| 20260506161517 | 67 | 330 | 3.5 | 11.3 | 0.00 | 0.00 | 0.00 | 87 | 1013.3 |
| 20260506160023 | 72 | 241 | 3.5 | 9.6 | 0.00 | 0.00 | 0.00 | 87 | 1013.0 |
| 20260506154536 | 75 | 326 | 0.9 | 2.6 | 0.00 | 0.00 | 0.00 | 88 | 1012.7 |
| 20260506153009 | 75 | 334 | 1.7 | 2.6 | 0.00 | 0.00 | 0.00 | 87 | 1012.5 |
| 20260506151514 | 76 | 347 | 0.0 | 2.6 | 0.00 | 0.00 | 0.00 | 87 | 1012.0 |
| 20260506150020 | 76 | 71 | 0.0 | 3.5 | 0.00 | 0.00 | 0.00 | 87 | 1011.6 |
| 20260506144522 | 76 | 53 | 0.9 | 1.7 | 0.00 | 0.00 | 0.00 | 87 | 1011.3 |
| 20260506143013 | 76 | 98 | 1.7 | 3.5 | 0.00 | 0.00 | 0.00 | 87 | 1011.0 |
| 20260506141511 | 75 | 16 | 0.9 | 2.6 | 0.00 | 0.00 | 0.00 | 89 | 1010.8 |
| 20260506140022 | 75 | 44 | 0.0 | 1.7 | 0.00 | 0.00 | 0.00 | 89 | 1011.3 |
| 20260506134520 | 75 | 84 | 0.0 | 3.5 | 0.00 | 0.00 | 0.00 | 90 | 1010.2 |
| 20260506133026 | 74 | 76 | 1.7 | 3.5 | 0.00 | 0.00 | 0.00 | 91 | 1010.2 |
| 20260506131508 | 74 | 10 | 0.9 | 4.3 | 0.00 | 0.00 | 0.00 | 92 | 1010.3 |
| 20260506130016 | 73 | 66 | 0.9 | 5.2 | 0.00 | 0.00 | 0.00 | 92 | 1010.1 |
| 20260506124519 | 73 | 31 | 0.9 | 4.3 | 0.00 | 0.00 | 0.00 | 92 | 1009.9 |
| 20260506123024 | 73 | 46 | 0.0 | 2.6 | 0.00 | 0.00 | 0.00 | 92 | 1009.9 |
| 20260506121528 | 73 | 42 | 0.0 | 1.7 | 0.00 | 0.00 | 0.00 | 92 | 1010.1 |
| 20260506120014 | 73 | 42 | 0.9 | 1.7 | 0.00 | 0.00 | 0.00 | 92 | 1010.0 |
| 20260506114518 | 73 | 26 | 0.0 | 1.7 | 0.00 | 0.00 | 0.00 | 91 | 1009.9 |
| 20260506113025 | 74 | 26 | 0.0 | 1.7 | 0.00 | 0.00 | 0.00 | 90 | 1009.9 |
| 20260506111528 | 74 | 37 | 0.0 | 1.7 | 0.00 | 0.00 | 0.00 | 90 | 1009.9 |
| 20260506110027 | 74 | 78 | 0.0 | 1.7 | 0.00 | 0.00 | 0.00 | 89 | 1009.7 |
| 20260506104515 | 74 | 78 | 0.9 | 5.2 | 0.00 | 0.00 | 0.00 | 89 | 1009.5 |
| 20260506103022 | 74 | 103 | 1.7 | 6.1 | 0.00 | 0.00 | 0.00 | 89 | 1009.3 |
| 20260506101503 | 74 | 87 | 2.6 | 5.2 | 0.00 | 0.00 | 0.00 | 89 | 1009.1 |
| 20260506100011 | 74 | 65 | 2.6 | 6.1 | 0.00 | 0.00 | 0.00 | 89 | 1009.1 |
| 20260506094513 | 74 | 123 | 1.7 | 5.2 | 0.00 | 0.00 | 0.00 | 89 | 1009.0 |
| 20260506093033 | 74 | 96 | 1.7 | 7.0 | 0.00 | 0.00 | 0.00 | 89 | 1008.7 |
| 20260506091505 | 74 | 109 | 2.6 | 7.8 | 0.00 | 0.00 | 0.00 | 88 | 1008.7 |
| 20260506090009 | 74 | 127 | 3.5 | 8.7 | 0.00 | 0.00 | 0.00 | 88 | 1008.5 |
| 20260506084516 | 74 | 109 | 2.6 | 5.2 | 0.00 | 0.00 | 0.00 | 89 | 1008.6 |
| 20260506083019 | 74 | 95 | 2.6 | 7.0 | 0.00 | 0.00 | 0.00 | 89 | 1008.6 |
| 20260506081524 | 74 | 21 | 3.5 | 9.6 | 0.00 | 0.00 | 0.00 | 89 | 1008.6 |
| 20260506073016 | 75 | 72 | 3.5 | 7.8 | 0.00 | 0.00 | 0.00 | 88 | 1009.0 |
| 20260506071519 | 75 | 110 | 2.6 | 11.3 | 0.00 | 0.00 | 0.00 | 88 | 1009.2 |
| 20260506061518 | 75 | 103 | 3.5 | 16.5 | 0.00 | 0.00 | 0.00 | 87 | 1009.2 |
| 20260506044527 | 76 | 98 | 4.3 | 12.2 | 0.00 | 0.00 | 0.00 | 86 | 1009.3 |
| 20260506043008 | 76 | 88 | 1.7 | 6.1 | 0.00 | 0.00 | 0.00 | 86 | 1009.4 |
| 20260506041514 | 76 | 55 | 2.6 | 7.8 | 0.00 | 0.00 | 0.00 | 86 | 1009.1 |
| 20260506040021 | 76 | 80 | 2.6 | 7.0 | 0.00 | 0.00 | 0.00 | 86 | 1009.0 |
| 20260506034524 | 76 | 82 | 1.7 | 7.0 | 0.00 | 0.00 | 0.00 | 85 | 1008.8 |
| 20260506033025 | 76 | 65 | 0.9 | 5.2 | 0.00 | 0.00 | 0.00 | 85 | 1008.7 |
| 20260506031514 | 76 | 54 | 1.7 | 7.0 | 0.00 | 0.00 | 0.00 | 85 | 1008.5 |
| 20260506030018 | 76 | 88 | 0.9 | 5.2 | 0.00 | 0.00 | 0.00 | 84 | 1008.2 |
| 20260506024525 | 76 | 11 | 0.9 | 6.1 | 0.00 | 0.00 | 0.00 | 83 | 1008.2 |
| 20260506023024 | 77 | 126 | 1.7 | 5.2 | 0.00 | 0.00 | 0.00 | 82 | 1007.8 |
| 20260506021526 | 77 | 92 | 1.7 | 5.2 | 0.00 | 0.00 | 0.00 | 82 | 1007.6 |
| 20260506020030 | 77 | 43 | 0.9 | 3.5 | 0.00 | 0.00 | 0.00 | 81 | 1007.1 |
| 20260506014520 | 77 | 63 | 0.9 | 3.5 | 0.00 | 0.00 | 0.00 | 81 | 1007.1 |
| 20260506013024 | 78 | 49 | 0.9 | 2.6 | 0.00 | 0.00 | 0.00 | 80 | 1007.0 |
| 20260506011508 | 78 | 63 | 0.9 | 2.6 | 0.00 | 0.00 | 0.00 | 80 | 1007.1 |